View from above orbital plane
|
View from above satellite
|
Ground track
|
The orbit data is extracted from the following two-line orbital elements,
1 25407U 98045B 13137.87281881 .00000067 00000-0 58707-4 0 1921
2 25407 071.0121 295.0060 0009385 310.1290 154.7389 14.15601403765128
| Epoch (UTC): | 17 May 2013 20:56:51 |
| Eccentricity: | 0.0009385 |
| inclination: | 71.0121° |
| perigee height: | 833 km |
| apogee height: | 847 km |
| right ascension of ascending node: | 295.0060° |
| argument of perigee: | 310.1290° |
| revolutions per day: | 14.15601403 |
| mean anomaly at epoch: | 154.7389° |
| orbit number at epoch: | 76512 |
The dashed part of the orbit path shows where the satellite is in the earth's shadow,
|
|